| time (UTC) | temp C | wind direction | speed KPH | gust KPH | rain 1hr cm | rain 24hr cm | rain mn cm | humidity % | barometer mb |
| 20260505101032 | 15 | 70 | 6.4 | 11.3 | 0.10 | 6.30 | 1.24 | 97 | 1005.1 |
| 20260505100537 | 15 | 68 | 4.8 | 9.7 | 0.10 | 6.30 | 1.24 | 97 | 1005.2 |
| 20260505100028 | 14 | 107 | 4.8 | 9.7 | 0.20 | 6.30 | 1.24 | 97 | 1005.2 |
| 20260505095546 | 14 | 63 | 0.0 | 8.0 | 0.20 | 6.30 | 1.24 | 97 | 1005.2 |
| 20260505095047 | 14 | 57 | 1.6 | 8.0 | 0.30 | 6.30 | 1.24 | 97 | 1005.2 |
| 20260505094528 | 14 | 126 | 1.6 | 9.7 | 0.41 | 6.30 | 1.24 | 97 | 1005.2 |
| 20260505094042 | 14 | 74 | 3.2 | 9.7 | 0.41 | 6.20 | 1.22 | 97 | 1005.2 |
| 20260505093529 | 14 | 67 | 1.6 | 12.9 | 0.51 | 6.20 | 1.22 | 97 | 1005.2 |
| 20260505093046 | 14 | 78 | 6.4 | 12.9 | 0.61 | 6.20 | 1.22 | 97 | 1005.2 |
| 20260505092551 | 13 | 88 | 6.4 | 12.9 | 0.71 | 6.20 | 1.22 | 97 | 1005.2 |
| 20260505092027 | 13 | 82 | 4.8 | 9.7 | 0.89 | 6.20 | 1.22 | 97 | 1005.2 |
| 20260505091540 | 13 | 39 | 4.8 | 9.7 | 0.89 | 6.20 | 1.22 | 97 | 1005.2 |
| 20260505091037 | 13 | 74 | 6.4 | 9.7 | 0.99 | 6.20 | 1.22 | 97 | 1005.2 |
| 20260505090541 | 13 | 71 | 8.0 | 11.3 | 0.89 | 6.10 | 1.19 | 97 | 1005.2 |
| 20260505090032 | 13 | 77 | 4.8 | 12.9 | 0.99 | 6.10 | 1.19 | 97 | 1005.2 |
| 20260505085604 | 13 | 50 | 4.8 | 12.9 | 0.99 | 6.10 | 1.19 | 97 | 1005.3 |
| 20260505085044 | 13 | 44 | 6.4 | 9.7 | 0.99 | 5.99 | 1.17 | 97 | 1005.3 |
| 20260505084531 | 13 | 55 | 4.8 | 9.7 | 0.99 | 5.89 | 1.17 | 97 | 1005.3 |
| 20260505084031 | 13 | 55 | 6.4 | 9.7 | 0.99 | 5.79 | 1.14 | 97 | 1005.2 |
| 20260505083531 | 13 | 64 | 4.8 | 9.7 | 0.99 | 5.69 | 1.12 | 97 | 1005.3 |
| 20260505083030 | 13 | 50 | 6.4 | 12.9 | 0.99 | 5.59 | 1.09 | 97 | 1005.3 |
| 20260505082538 | 13 | 48 | 8.0 | 12.9 | 0.89 | 5.41 | 1.07 | 97 | 1005.3 |
| 20260505082103 | 13 | 50 | 6.4 | 9.7 | 0.99 | 5.31 | 1.04 | 97 | 1005.3 |
| 20260505081544 | 13 | 55 | 4.8 | 14.5 | 1.30 | 5.31 | 1.04 | 97 | 1005.3 |
| 20260505081042 | 13 | 49 | 6.4 | 14.5 | 1.60 | 5.21 | 1.02 | 97 | 1005.3 |
| 20260505080542 | 13 | 49 | 4.8 | 12.9 | 1.60 | 5.11 | 0.99 | 97 | 1005.4 |
| 20260505080059 | 13 | 55 | 8.0 | 12.9 | 1.80 | 5.11 | 0.99 | 97 | 1005.4 |
| 20260505075543 | 13 | 53 | 6.4 | 9.7 | 1.80 | 5.00 | 0.99 | 97 | 1005.5 |
| 20260505075028 | 13 | 38 | 4.8 | 9.7 | 2.01 | 5.00 | 0.99 | 97 | 1005.5 |
| 20260505074528 | 13 | 39 | 6.4 | 9.7 | 2.11 | 4.90 | 0.97 | 97 | 1005.5 |
| 20260505074028 | 13 | 52 | 3.2 | 8.0 | 2.21 | 4.80 | 0.94 | 97 | 1005.5 |
| 20260505073546 | 13 | 60 | 6.4 | 9.7 | 2.39 | 4.70 | 0.91 | 97 | 1005.6 |
| 20260505073032 | 13 | 39 | 4.8 | 9.7 | 2.49 | 4.60 | 0.89 | 97 | 1005.6 |
| 20260505072552 | 13 | 34 | 4.8 | 8.0 | 2.49 | 4.39 | 0.86 | 97 | 1005.6 |
| 20260505072032 | 13 | 39 | 4.8 | 8.0 | 2.49 | 4.19 | 0.81 | 97 | 1005.7 |
| 20260505071538 | 12 | 32 | 3.2 | 8.0 | 2.49 | 3.99 | 0.79 | 97 | 1005.7 |
| 20260505071037 | 12 | 25 | 3.2 | 8.0 | 2.21 | 3.61 | 0.71 | 97 | 1005.8 |
| 20260505070545 | 12 | 9 | 3.2 | 9.7 | 2.21 | 3.51 | 0.69 | 97 | 1005.8 |
| 20260505070037 | 12 | 11 | 6.4 | 9.7 | 2.11 | 3.40 | 0.64 | 97 | 1005.8 |
| 20260505065546 | 12 | 9 | 4.8 | 9.7 | 2.01 | 3.20 | 0.61 | 97 | 1005.8 |
| 20260505065045 | 12 | 14 | 6.4 | 12.9 | 1.91 | 3.10 | 0.58 | 97 | 1005.8 |
| 20260505064558 | 12 | 9 | 4.8 | 9.7 | 1.70 | 2.79 | 0.51 | 97 | 1005.9 |
| 20260505064102 | 12 | 15 | 4.8 | 9.7 | 1.60 | 2.59 | 0.48 | 97 | 1005.9 |
| 20260505063529 | 12 | 17 | 4.8 | 8.0 | 1.40 | 2.39 | 0.43 | 97 | 1005.9 |
| 20260505063043 | 12 | 11 | 4.8 | 8.0 | 1.19 | 2.11 | 0.38 | 97 | 1005.9 |
| 20260505062601 | 12 | 51 | 4.8 | 8.0 | 0.99 | 1.91 | 0.33 | 97 | 1006.0 |
| 20260505062039 | 12 | 27 | 4.8 | 8.0 | 0.89 | 1.70 | 0.30 | 97 | 1006.0 |
| 20260505061547 | 12 | 42 | 4.8 | 8.0 | 0.79 | 1.60 | 0.28 | 97 | 1006.0 |
| 20260505061054 | 12 | 32 | 4.8 | 8.0 | 0.71 | 1.50 | 0.25 | 97 | 1006.0 |
| 20260505060543 | 12 | 34 | 4.8 | 9.7 | 0.61 | 1.40 | 0.23 | 97 | 1006.0 |
| 20260505060030 | 12 | 46 | 4.8 | 11.3 | 0.51 | 1.40 | 0.23 | 97 | 1006.0 |
| 20260505055537 | 13 | 53 | 6.4 | 9.7 | 0.41 | 1.30 | 0.20 | 97 | 1006.1 |
| 20260505055044 | 13 | 15 | 4.8 | 9.7 | 0.30 | 1.19 | 0.18 | 97 | 1006.1 |
| 20260505054539 | 13 | 46 | 3.2 | 9.7 | 0.30 | 1.19 | 0.18 | 97 | 1006.1 |
| 20260505054038 | 13 | 55 | 3.2 | 6.4 | 0.20 | 1.09 | 0.15 | 97 | 1006.1 |
| 20260505053542 | 13 | 42 | 1.6 | 6.4 | 0.20 | 1.09 | 0.15 | 97 | 1006.0 |
| 20260505053030 | 12 | 53 | 1.6 | 4.8 | 0.10 | 0.99 | 0.15 | 97 | 1006.0 |
| 20260505052536 | 13 | 46 | 1.6 | 4.8 | 0.10 | 0.99 | 0.15 | 97 | 1006.0 |
| 20260505052040 | 13 | 37 | 1.6 | 6.4 | 0.00 | 0.89 | 0.13 | 97 | 1006.0 |
| 20260505051529 | 13 | 45 | 3.2 | 6.4 | 0.00 | 0.89 | 0.13 | 97 | 1006.0 |
| 20260505051030 | 12 | 39 | 1.6 | 6.4 | 0.00 | 0.89 | 0.13 | 97 | 1006.0 |
| 20260505050544 | 12 | 19 | 3.2 | 6.4 | 0.00 | 0.89 | 0.13 | 97 | 1006.0 |
| 20260505041536 | 12 | 53 | 3.2 | 8.0 | 0.20 | 0.99 | 0.13 | 97 | 1006.3 |
| 20260505041034 | 12 | 51 | 3.2 | 6.4 | 0.20 | 0.99 | 0.13 | 97 | 1006.2 |
| 20260505040553 | 12 | 49 | 3.2 | 6.4 | 0.20 | 0.99 | 0.13 | 97 | 1006.3 |
| 20260505040046 | 12 | 55 | 3.2 | 4.8 | 0.20 | 1.09 | 0.13 | 97 | 1006.3 |
| 20260505035532 | 12 | 40 | 1.6 | 6.4 | 0.20 | 0.99 | 0.10 | 97 | 1006.4 |
| 20260505035030 | 12 | 41 | 1.6 | 4.8 | 0.20 | 0.99 | 0.10 | 97 | 1006.5 |
| 20260505034538 | 12 | 54 | 3.2 | 6.4 | 0.41 | 0.99 | 0.10 | 97 | 1006.5 |
| 20260505034041 | 12 | 36 | 3.2 | 6.4 | 0.51 | 0.99 | 0.10 | 97 | 1006.6 |
| 20260505033533 | 12 | 49 | 3.2 | 6.4 | 0.51 | 0.99 | 0.10 | 97 | 1006.6 |
| 20260505033046 | 12 | 34 | 3.2 | 6.4 | 0.51 | 0.99 | 0.10 | 97 | 1006.7 |
| 20260505032531 | 12 | 47 | 1.6 | 6.4 | 0.51 | 0.99 | 0.10 | 97 | 1006.7 |
| 20260505032034 | 12 | 54 | 1.6 | 9.7 | 0.51 | 0.99 | 0.10 | 97 | 1006.8 |
| 20260505031540 | 12 | 52 | 3.2 | 9.7 | 0.41 | 0.89 | 0.08 | 97 | 1006.8 |
| 20260505031047 | 12 | 60 | 3.2 | 9.7 | 0.41 | 0.89 | 0.08 | 97 | 1006.9 |
| 20260505030534 | 12 | 46 | 6.4 | 12.9 | 0.41 | 0.89 | 0.08 | 97 | 1006.9 |
| 20260505030030 | 12 | 30 | 4.8 | 12.9 | 0.41 | 1.50 | 0.08 | 97 | 1006.8 |
| 20260505025540 | 12 | 52 | 4.8 | 9.7 | 0.30 | 1.40 | 0.05 | 97 | 1006.9 |
| 20260505025049 | 12 | 33 | 3.2 | 8.0 | 0.20 | 1.30 | 0.05 | 97 | 1007.1 |
| 20260505024549 | 12 | 23 | 3.2 | 4.8 | 0.10 | 1.19 | 0.03 | 97 | 1007.1 |
| 20260505024034 | 12 | 5 | 3.2 | 4.8 | 0.00 | 1.09 | 0.00 | 97 | 1007.3 |
| 20260505023538 | 12 | 349 | 1.6 | 3.2 | 0.00 | 1.09 | 0.00 | 97 | 1007.4 |
| 20260505023040 | 12 | 25 | 0.0 | 1.6 | 0.00 | 1.09 | 0.00 | 97 | 1007.4 |
| 20260505022543 | 12 | 25 | 0.0 | 1.6 | 0.00 | 1.09 | 0.00 | 97 | 1007.4 |
| 20260505022103 | 12 | 25 | 0.0 | 0.0 | 0.00 | 1.09 | 0.00 | 97 | 1007.4 |
| 20260505021530 | 12 | 25 | 0.0 | 3.2 | 0.00 | 1.09 | 0.00 | 97 | 1007.4 |
| 20260505021040 | 12 | 25 | 0.0 | 3.2 | 0.00 | 1.09 | 0.00 | 97 | 1007.5 |
| 20260505020554 | 12 | 30 | 1.6 | 3.2 | 0.00 | 1.09 | 0.00 | 97 | 1007.4 |
| 20260505020032 | 12 | 30 | 1.6 | 4.8 | 0.00 | 1.09 | 0.00 | 97 | 1007.5 |
| 20260505015604 | 12 | 32 | 1.6 | 4.8 | 0.00 | 1.09 | 0.00 | 97 | 1007.4 |
| 20260505015031 | 12 | 40 | 1.6 | 4.8 | 0.00 | 1.09 | 0.00 | 97 | 1007.5 |
| 20260505014537 | 12 | 44 | 1.6 | 3.2 | 0.00 | 1.09 | 0.00 | 96 | 1007.4 |
| 20260505014055 | 12 | 350 | 0.0 | 3.2 | 0.00 | 1.09 | 0.00 | 96 | 1007.6 |
| 20260505013544 | 12 | 332 | 1.6 | 4.8 | 0.00 | 1.09 | 0.00 | 97 | 1007.6 |
| 20260505013033 | 12 | 345 | 0.0 | 4.8 | 0.00 | 1.09 | 0.00 | 96 | 1007.6 |
| 20260505012544 | 12 | 344 | 3.2 | 4.8 | 0.00 | 1.09 | 0.00 | 96 | 1007.4 |
| 20260505012043 | 12 | 349 | 3.2 | 6.4 | 0.00 | 1.09 | 0.00 | 96 | 1007.5 |
| 20260505011558 | 12 | 5 | 3.2 | 6.4 | 0.00 | 1.09 | 0.00 | 96 | 1007.6 |
| 20260505011030 | 12 | 350 | 3.2 | 6.4 | 0.00 | 1.09 | 0.00 | 96 | 1007.7 |
| 20260505010600 | 12 | 10 | 3.2 | 6.4 | 0.00 | 1.09 | 0.00 | 96 | 1007.7 |
| 20260505010038 | 12 | 19 | 1.6 | 3.2 | 0.00 | 1.09 | 0.00 | 96 | 1007.7 |
| 20260505005541 | 12 | 22 | 1.6 | 3.2 | 0.00 | 1.09 | 0.00 | 96 | 1007.7 |
| 20260505005036 | 12 | 19 | 1.6 | 4.8 | 0.00 | 1.09 | 0.00 | 96 | 1007.9 |
| 20260505004542 | 12 | 360 | 1.6 | 4.8 | 0.00 | 1.09 | 0.00 | 96 | 1008.0 |
| 20260505004103 | 12 | 355 | 1.6 | 3.2 | 0.00 | 1.09 | 0.00 | 96 | 1008.1 |
| 20260505003529 | 12 | 5 | 1.6 | 3.2 | 0.00 | 1.09 | 0.00 | 96 | 1008.2 |
| 20260505003105 | 12 | 355 | 1.6 | 1.6 | 0.00 | 1.09 | 0.00 | 96 | 1008.3 |
| 20260505002530 | 12 | 27 | 0.0 | 1.6 | 0.00 | 1.09 | 0.00 | 96 | 1008.3 |
| 20260505002044 | 12 | 32 | 0.0 | 3.2 | 0.00 | 1.09 | 0.00 | 96 | 1008.3 |
| 20260505001528 | 12 | 32 | 0.0 | 3.2 | 0.00 | 1.09 | 0.00 | 96 | 1008.3 |
| 20260505001040 | 12 | 360 | 0.0 | 0.0 | 0.00 | 1.09 | 0.00 | 96 | 1008.4 |
| 20260505000528 | 12 | 360 | 0.0 | 1.6 | 0.00 | 1.09 | 0.00 | 96 | 1008.4 |
| 20260505000056 | 12 | 360 | 0.0 | 4.8 | 0.00 | 1.09 | 0.23 | 96 | 1008.4 |
| 20260504235530 | 12 | 355 | 1.6 | 3.2 | 0.00 | 1.09 | 0.23 | 96 | 1008.3 |
| 20260504235044 | 12 | 13 | 0.0 | 3.2 | 0.00 | 1.09 | 0.23 | 96 | 1008.4 |
| 20260504234533 | 12 | 54 | 0.0 | 4.8 | 0.00 | 1.09 | 0.23 | 96 | 1008.4 |
| 20260504234030 | 12 | 40 | 1.6 | 4.8 | 0.00 | 1.09 | 0.23 | 96 | 1008.3 |
| 20260504233535 | 12 | 19 | 3.2 | 4.8 | 0.00 | 1.09 | 0.23 | 96 | 1008.2 |
| 20260504233036 | 12 | 13 | 1.6 | 4.8 | 0.00 | 1.09 | 0.23 | 96 | 1008.3 |
| 20260504232540 | 13 | 19 | 1.6 | 4.8 | 0.00 | 1.09 | 0.23 | 96 | 1008.3 |
| 20260504232043 | 13 | 26 | 1.6 | 4.8 | 0.00 | 1.09 | 0.23 | 96 | 1008.4 |
| 20260504231530 | 13 | 20 | 3.2 | 4.8 | 0.00 | 1.09 | 0.23 | 96 | 1008.4 |
| 20260504231044 | 13 | 11 | 1.6 | 6.4 | 0.00 | 1.09 | 0.23 | 96 | 1008.5 |
| 20260504230531 | 13 | 355 | 3.2 | 6.4 | 0.00 | 1.09 | 0.23 | 96 | 1008.5 |
| 20260504230046 | 13 | 355 | 3.2 | 6.4 | 0.00 | 1.09 | 0.23 | 96 | 1008.6 |
| 20260504225533 | 13 | 355 | 1.6 | 4.8 | 0.00 | 1.09 | 0.23 | 96 | 1008.7 |
| 20260504225030 | 13 | 346 | 1.6 | 6.4 | 0.00 | 1.09 | 0.23 | 96 | 1008.6 |
| 20260504224542 | 13 | 331 | 3.2 | 6.4 | 0.00 | 1.09 | 0.23 | 96 | 1008.5 |
| 20260504224042 | 13 | 350 | 3.2 | 8.0 | 0.00 | 1.09 | 0.23 | 96 | 1008.6 |
| 20260504223551 | 13 | 360 | 3.2 | 8.0 | 0.00 | 1.09 | 0.23 | 96 | 1008.5 |
| 20260504223040 | 13 | 360 | 1.6 | 8.0 | 0.00 | 1.09 | 0.23 | 95 | 1008.7 |
| 20260504222545 | 13 | 5 | 1.6 | 8.0 | 0.00 | 1.09 | 0.23 | 95 | 1008.8 |
| 20260504222043 | 13 | 355 | 3.2 | 6.4 | 0.00 | 1.09 | 0.23 | 95 | 1008.8 |
| 20260504221559 | 13 | 355 | 0.0 | 1.6 | 0.00 | 1.09 | 0.23 | 95 | 1009.1 |
| 20260504221039 | 13 | 355 | 0.0 | 1.6 | 0.00 | 1.09 | 0.23 | 95 | 1009.0 |
| 20260504220540 | 13 | 17 | 0.0 | 1.6 | 0.00 | 1.09 | 0.23 | 95 | 1009.1 |
| 20260504220032 | 13 | 9 | 0.0 | 1.6 | 0.00 | 1.09 | 0.23 | 95 | 1009.1 |
| 20260504215538 | 13 | 9 | 0.0 | 3.2 | 0.00 | 1.09 | 0.23 | 95 | 1009.2 |
| 20260504215040 | 13 | 360 | 0.0 | 3.2 | 0.00 | 1.09 | 0.23 | 95 | 1009.2 |
| 20260504214547 | 13 | 16 | 0.0 | 1.6 | 0.00 | 1.09 | 0.23 | 95 | 1009.3 |
| 20260504214032 | 13 | 17 | 0.0 | 1.6 | 0.00 | 1.09 | 0.23 | 95 | 1009.4 |
| 20260504213602 | 13 | 11 | 0.0 | 1.6 | 0.00 | 1.09 | 0.23 | 94 | 1009.4 |
| 20260504213053 | 13 | 12 | 0.0 | 3.2 | 0.00 | 1.09 | 0.23 | 94 | 1009.3 |
| 20260504212537 | 13 | 355 | 1.6 | 3.2 | 0.00 | 1.09 | 0.23 | 94 | 1009.4 |
| 20260504212045 | 13 | 355 | 0.0 | 3.2 | 0.00 | 1.09 | 0.23 | 94 | 1009.4 |
| 20260504211531 | 14 | 11 | 0.0 | 3.2 | 0.00 | 1.09 | 0.23 | 93 | 1009.5 |
| 20260504211034 | 14 | 17 | 0.0 | 6.4 | 0.00 | 1.09 | 0.23 | 93 | 1009.5 |
| 20260504210543 | 14 | 19 | 1.6 | 6.4 | 0.00 | 1.09 | 0.23 | 93 | 1009.5 |
| 20260504210036 | 14 | 355 | 1.6 | 8.0 | 0.00 | 1.09 | 0.23 | 93 | 1009.5 |
| 20260504205544 | 14 | 355 | 3.2 | 8.0 | 0.00 | 1.09 | 0.23 | 93 | 1009.5 |
| 20260504205108 | 14 | 360 | 3.2 | 6.4 | 0.00 | 1.09 | 0.23 | 93 | 1009.4 |
| 20260504204533 | 14 | 355 | 3.2 | 6.4 | 0.00 | 1.09 | 0.23 | 92 | 1009.5 |
| 20260504204031 | 14 | 360 | 1.6 | 4.8 | 0.00 | 1.09 | 0.23 | 92 | 1009.5 |
| 20260504203542 | 15 | 17 | 0.0 | 3.2 | 0.00 | 1.09 | 0.23 | 92 | 1009.5 |
| 20260504203041 | 15 | 16 | 0.0 | 3.2 | 0.00 | 1.09 | 0.23 | 93 | 1009.6 |
| 20260504202549 | 15 | 37 | 0.0 | 4.8 | 0.00 | 1.09 | 0.23 | 92 | 1009.7 |
| 20260504202047 | 15 | 23 | 1.6 | 6.4 | 0.00 | 1.09 | 0.23 | 92 | 1009.7 |
| 20260504201535 | 15 | 37 | 3.2 | 6.4 | 0.00 | 1.09 | 0.23 | 92 | 1009.6 |
| 20260504201032 | 15 | 34 | 1.6 | 4.8 | 0.00 | 1.09 | 0.23 | 91 | 1009.6 |
| 20260504200537 | 15 | 42 | 1.6 | 3.2 | 0.00 | 1.09 | 0.23 | 91 | 1009.6 |
| 20260504200034 | 15 | 44 | 0.0 | 4.8 | 0.00 | 1.09 | 0.23 | 91 | 1009.6 |
| 20260504195547 | 15 | 44 | 3.2 | 8.0 | 0.00 | 1.09 | 0.23 | 91 | 1009.6 |
| 20260504195032 | 15 | 28 | 3.2 | 9.7 | 0.00 | 1.09 | 0.23 | 90 | 1009.6 |
| 20260504194607 | 15 | 44 | 4.8 | 9.7 | 0.00 | 1.09 | 0.23 | 90 | 1009.5 |
| 20260504194049 | 15 | 44 | 3.2 | 9.7 | 0.00 | 1.09 | 0.23 | 89 | 1009.5 |
| 20260504193534 | 15 | 53 | 3.2 | 8.0 | 0.00 | 1.09 | 0.23 | 88 | 1009.4 |
| 20260504193036 | 15 | 42 | 3.2 | 6.4 | 0.00 | 1.09 | 0.23 | 88 | 1009.4 |
| 20260504192539 | 15 | 36 | 4.8 | 6.4 | 0.00 | 1.09 | 0.23 | 88 | 1009.2 |
| 20260504192106 | 16 | 51 | 4.8 | 6.4 | 0.00 | 1.09 | 0.23 | 88 | 1009.2 |
| 20260504191529 | 16 | 17 | 3.2 | 8.0 | 0.00 | 1.09 | 0.23 | 87 | 1009.2 |
| 20260504191035 | 16 | 27 | 4.8 | 6.4 | 0.00 | 1.09 | 0.23 | 87 | 1009.2 |
| 20260504190608 | 16 | 34 | 3.2 | 6.4 | 0.00 | 1.09 | 0.23 | 87 | 1009.3 |
| 20260504190040 | 16 | 38 | 3.2 | 6.4 | 0.00 | 1.09 | 0.23 | 87 | 1009.3 |
| 20260504185607 | 16 | 49 | 4.8 | 6.4 | 0.00 | 1.09 | 0.23 | 87 | 1009.3 |
| 20260504185038 | 16 | 49 | 1.6 | 6.4 | 0.00 | 1.09 | 0.23 | 87 | 1009.4 |
| 20260504184541 | 16 | 48 | 3.2 | 6.4 | 0.00 | 1.09 | 0.23 | 87 | 1009.3 |
| 20260504184033 | 16 | 53 | 3.2 | 4.8 | 0.00 | 1.09 | 0.23 | 86 | 1009.2 |
| 20260504183606 | 16 | 35 | 3.2 | 4.8 | 0.00 | 1.09 | 0.23 | 86 | 1009.3 |
| 20260504183054 | 16 | 37 | 3.2 | 4.8 | 0.00 | 1.09 | 0.23 | 85 | 1009.2 |
| 20260504182541 | 16 | 41 | 1.6 | 4.8 | 0.00 | 1.09 | 0.23 | 85 | 1009.4 |
| 20260504182100 | 16 | 49 | 1.6 | 6.4 | 0.00 | 1.09 | 0.23 | 85 | 1009.3 |
| 20260504181543 | 17 | 34 | 3.2 | 6.4 | 0.00 | 1.09 | 0.23 | 85 | 1009.3 |
| 20260504181053 | 17 | 40 | 1.6 | 6.4 | 0.00 | 1.09 | 0.23 | 84 | 1009.3 |
| 20260504180539 | 17 | 42 | 3.2 | 4.8 | 0.00 | 1.09 | 0.23 | 85 | 1009.2 |
| 20260504180033 | 17 | 38 | 3.2 | 4.8 | 0.00 | 1.09 | 0.23 | 84 | 1009.1 |
| 20260504175552 | 17 | 40 | 1.6 | 6.4 | 0.00 | 1.09 | 0.23 | 84 | 1009.1 |
| 20260504175038 | 17 | 15 | 3.2 | 6.4 | 0.00 | 1.09 | 0.23 | 83 | 1009.0 |
| 20260504174545 | 17 | 5 | 4.8 | 6.4 | 0.00 | 1.09 | 0.23 | 83 | 1008.9 |
| 20260504174035 | 17 | 39 | 3.2 | 4.8 | 0.00 | 1.09 | 0.23 | 82 | 1008.9 |
| 20260504173034 | 17 | 75 | 3.2 | 8.0 | 0.00 | 1.09 | 0.23 | 80 | 1008.9 |
| 20260504172545 | 17 | 11 | 3.2 | 6.4 | 0.00 | 1.09 | 0.23 | 82 | 1008.9 |
| 20260504172035 | 17 | 46 | 1.6 | 6.4 | 0.00 | 1.09 | 0.23 | 82 | 1008.9 |
| 20260504171536 | 17 | 32 | 1.6 | 4.8 | 0.00 | 1.09 | 0.23 | 80 | 1008.9 |
| 20260504171106 | 17 | 40 | 1.6 | 4.8 | 0.00 | 1.09 | 0.23 | 80 | 1008.9 |
| 20260504170529 | 17 | 5 | 1.6 | 4.8 | 0.00 | 1.09 | 0.23 | 80 | 1009.0 |
| 20260504151101 | 18 | 76 | 1.6 | 9.7 | 0.00 | 1.30 | 0.23 | 82 | 1009.6 |
| 20260504150526 | 18 | 40 | 1.6 | 9.7 | 0.00 | 1.30 | 0.23 | 82 | 1009.6 |
| 20260504141027 | 18 | 92 | 6.4 | 12.9 | 0.00 | 2.39 | 0.23 | 79 | 1010.0 |
| 20260504140537 | 18 | 105 | 6.4 | 12.9 | 0.00 | 2.39 | 0.23 | 78 | 1010.0 |
| 20260504130602 | 17 | 80 | 3.2 | 6.4 | 0.00 | 2.39 | 0.23 | 85 | 1010.4 |
| 20260504110529 | 16 | 123 | 8.0 | 14.5 | 0.10 | 2.39 | 0.23 | 90 | 1011.0 |